Regional Weather Roundup
Issued by NWS

Home | Current Version | Previous Version | Text Only | Print | Product List | Glossary On
Versions: 1 2 3 4 5 6 7 8 9 10 11 12 13 14 15 16 17 18 19 20 21 22 23 24 25 26 27 28 29 30 31 32 33 34 35 36 37 38 39 40 41 42 43 44 45 46 47 48 49 50
000
ASUS42 KTBW 210810
RWRFL
FLORIDA REGIONAL WEATHER ROUNDUP
NATIONAL WEATHER SERVICE TAMPA BAY RUSKIN FL
300 AM EST SUN DEC 21 2014

NOTE: "FAIR" INDICATES FEW OR NO CLOUDS BELOW 12,000 FEET WITH NO
SIGNIFICANT WEATHER AND/OR OBSTRUCTIONS TO VISIBILITY.


FLZ001>010-012>015-112-114-115-210900-
PANHANDLE FLORIDA

CITY           SKY/WX    TMP DP  RH WIND       PRES   REMARKS
PENSACOLA      CLOUDY    50  49  96 N8        30.11S
CRESTVIEW      CLOUDY    53  50  89 N7        30.13S
DUKE FIELD     CLOUDY    52  50  92 N8        30.11S
VALPARAISO     CLOUDY    53  50  91 N7        30.10S
MARY ESTHER    CLOUDY    53  48  84 NE9       30.09S
PANAMA CITY    CLOUDY    54  52  93 N7        30.07S
APALACHICOLA   CLOUDY    58  53  84 NE8       30.06F

STATION/POSITION SKY/WX   TEMP    WIND        PRES    WAVE   SWELL
                          AIR SEA DIR/SP/G            HT/PER HT/PER
                          (F)     (DEG/KT/KT) (MB)    (FT/S) (FT/S)
30.1N   87.6W              56 70   20/ 14/ 16 1018.9R   3/ 6
29.2N   88.2W              63 74   30/ 16/ 19 1018.0R   6/ 6
28.7N   86.0W              69 75   60/ 16/ 19 1015.8    4/ 6
PANAMA CITY BEAC           55 60   40/  9/ 15 1017.8S
CAPE SAN BLAS    NOT AVBL
TOWER C                    59      70/ 20/ 22 1017.0F
28.5N   84.5W              70 71  120/ 14/ 16 1016.3F   3/ 5   2/ 8

$$
FLZ011-016>038-118-127-128-134-139-239-210900-
NORTH FLORIDA

CITY           SKY/WX    TMP DP  RH WIND       PRES   REMARKS
MARIANNA       CLOUDY    54  54 100 NE10      30.11F
TALLAHASSEE    CLOUDY    56  51  84 E7        30.09F
PERRY          MOCLDY    55  55  97 NE5       30.10F
CROSS CITY       N/A     57  55  93 E5        30.07F
LAKE CITY      CLOUDY    55  54  94 NE5       30.10S
GAINESVILLE    CLOUDY    59  58  96 NE6       30.09S FOG
MAYPORT NAS    CLOUDY    59  58  96 N15       30.11F
JACKSONVILLE   CLOUDY    57  57 100 NE10      30.11F
JAX NAS        CLOUDY    61  57  87 N8        30.12S
JAX CRAIG      CLOUDY    59  57  93 NE8       30.11F
JAX CECIL      CLOUDY    57  57 100 NE7       30.11S FOG
FERNANDINA BEA CLOUDY    63  59  88 NE10G16   30.11F
ST AUGUSTINE   CLOUDY    61  60  97 N10       30.11F

STATION/POSITION SKY/WX   TEMP    WIND        PRES    WAVE   SWELL
                          AIR SEA DIR/SP/G            HT/PER HT/PER
                          (F)     (DEG/KT/KT) (MB)    (FT/S) (FT/S)
SHELL POINT                55      20/  6/ 10   N/A
KEATON BEACH               58      40/  5/  8 1018.8F
CEDAR KEY                  60      70/ 10/ 11 1018.5F
FERNANDINA                 57 59   20/  7/ 13 1019.6R
30.7N   81.3W                 61                N/A     5/ 5
MAYPORT                    59 61   30/ 15/ 17   N/A
31.4N   80.9W              56 59   40/ 19/ 23 1020.1F   5/ 6
ST AUGUSTINE               62     360/ 15/ 17 1019.5F

$$
FLZ040-043>046-052-053-057-058-063-144-210900-
INTERIOR CENTRAL FLORIDA

CITY           SKY/WX    TMP DP  RH WIND       PRES   REMARKS
OCALA          CLOUDY    59  55  88 NE6       30.09R
THE VILLAGES     N/A     61  61 100 NE7       29.98F FOG
LEESBURG       CLOUDY    62  60  93 NE6       30.08F
SANFORD        CLOUDY    62  60  93 N3        30.07S
ORLANDO EXEC   MOCLDY    64  62  93 CALM      30.07F
ORLANDO INTL   CLOUDY    62  61  96 CALM      30.07F
WINTER HAVEN   CLOUDY    64  59  83 CALM      30.07F
LAKELAND       CLOUDY    61  55  82 CALM      30.06S
BARTOW         CLOUDY    59  57  94 CALM      30.07S
OKEECHOBEE     PTCLDY    63  61  94 S3        30.07S

$$
FLZ041-047-054-059-064-141-147-210900-
EAST CENTRAL FLORIDA

CITY           SKY/WX    TMP DP  RH WIND       PRES   REMARKS
DAYTONA BEACH  CLOUDY    64  62  93 N3        30.08S
DELAND         CLOUDY   N/A N/A N/A CALM      30.08F VSB 1/2
JFK SPACE CTR  CLOUDY    61  59  95 CALM      30.06
PATRICK AFB    PTCLDY    65  62  92 SW5       30.06F
MELBOURNE      PTCLDY    64  60  87 S5        30.06F
VERO BEACH     MOCLDY    60  58  92 CALM      30.06F
FT PIERCE      PTCLDY    59  57  93 CALM      30.06S FOG
STUART         MOCLDY    63  61  94 CALM      30.07F

STATION/POSITION SKY/WX   TEMP    WIND        PRES    WAVE   SWELL
                          AIR SEA DIR/SP/G            HT/PER HT/PER
                          (F)     (DEG/KT/KT) (MB)    (FT/S) (FT/S)
28.5N   80.2W              74 76  210/  8/ 10 1018.5F
28.9N   78.5W              74 76  190/ 12/ 14 1018.6F   2/10   2/10
TRIDENT PIER               63 66   CALM  /  1 1017.6F
28.4N   80.5W                 67                N/A     2/10
27.6N   80.2W                 76                N/A     2/10

$$
FLZ050-056-061-142-242-148-248-149-249-151-251-155-255-
160-260-210900-
WEST CENTRAL FLORIDA

CITY           SKY/WX    TMP DP  RH WIND       PRES   REMARKS
CRYSTAL RIVER  CLOUDY    61  59  94 E6        30.07S
INVERNESS      CLOUDY    61  61 100 NE3       30.08S FOG
BROOKSVILLE    CLOUDY    62  60  93 NE3       30.07F
ZEPHYRHILLS    CLOUDY    57  57 100 CALM      30.07S
CLEARWATER     MOCLDY    64  61  90 NE3       30.05F
TAMPA INTL     CLOUDY    66  57  72 NE5       30.06F
TAMPA EXEC     CLOUDY    63  59  88 CALM      30.07S
PLANT CITY     CLOUDY    63 N/A N/A CALM      30.08S
PETER O KNIGHT CLOUDY    66  61  82 E7        30.06S
ST PETERSBURG  CLOUDY    66  60  81 CALM      30.04F
SARASOTA       PTCLDY    62  59  90 E3        30.04F
VENICE         FAIR      63  63 100 E6        30.07S

STATION/POSITION SKY/WX   TEMP    WIND        PRES    WAVE   SWELL
                          AIR SEA DIR/SP/G            HT/PER HT/PER
                          (F)     (DEG/KT/KT) (MB)    (FT/S) (FT/S)
CEDAR KEY                  60      70/ 10/ 11 1018.5F
28.5N   84.5W              70 71  120/ 14/ 16 1016.3F   3/ 5   2/ 8
27.3N   84.3W                 75                N/A     3/ 4
CLEARWATER BEACH           66 64   80/  4/  5 1017.4S
MIDDLE TAMPA BAY           64     110/  3/  3 1017.9F
VENICE                     63 65   90/  7/  8 1017.6S

$$
FLZ066-069-070-075>078-162-262-165-265-210900-
SOUTHWEST FLORIDA AND KEYS

CITY           SKY/WX    TMP DP  RH WIND       PRES   REMARKS
PUNTA GORDA    MOCLDY    58  58 100 NE3       30.08S
FT MYERS       PTCLDY    63  61  93 CALM      30.05S
SOUTHWEST INTL PTCLDY    63  61  93 CALM      30.06R
NAPLES         PTCLDY    65  63  93 E3        30.04F
MARCO ISLAND   CLOUDY    63  61  94 SE3       30.05S
MARATHON       CLEAR     69  68  96 NE3       30.04F
KEY WEST NAS   PTCLDY    71  69  93 NE3       30.04S
KEY WEST INTL  MOCLDY    73  69  87 E3        30.04F

STATION/POSITION SKY/WX   TEMP    WIND        PRES    WAVE   SWELL
                          AIR SEA DIR/SP/G            HT/PER HT/PER
                          (F)     (DEG/KT/KT) (MB)    (FT/S) (FT/S)
VENICE                     63 65   90/  7/  8 1017.6S
NAPLES                     66 73  110/  5/  6 1017.9F
26.0N   85.6W              76 76  160/  6/  8 1016.1F   3/ 7   3/ 7
DRY TORTUGAS               73     130/  9/ 10 1016.8F
NW FL BAY                  69      80/  5/  6 1018.3F
SAND KEY                   76     120/ 12/ 14 1017.1F
SOMBRERO KEY               76     110/ 12/ 13 1017.6F
LONG KEY                   71 71   80/  5/  6 1018.5F
MOLASSES REEF              75 76  140/  9/ 10 1017.6F

$$
FLZ067-068-071>074-168-172>174-210900-
SOUTHEAST FLORIDA

CITY           SKY/WX    TMP DP  RH WIND       PRES   REMARKS
W PALM BEACH   PTCLDY    64  61  90 CALM      30.05F
FT LAUDER-EXEC PTCLDY    63  61  93 CALM      30.06S
FT LAUDERDALE  MOCLDY    67  65  93 CALM      30.05F
POMPANO BEACH  PTCLDY    71  63  75 S3        30.06S
PEMBROKE PINES PTCLDY    63  60  90 CALM      30.07S
OPA LOCKA      MOCLDY    62  62 100 CALM      30.06S
MIAMI          MOCLDY    66  63  90 CALM      30.06S
WEST KENDALL   CLEAR    N/A N/A N/A CALM      30.06S
HOMESTEAD      NOT AVBL

STATION/POSITION SKY/WX   TEMP    WIND        PRES    WAVE   SWELL
                          AIR SEA DIR/SP/G            HT/PER HT/PER
                          (F)     (DEG/KT/KT) (MB)    (FT/S) (FT/S)
PORT EVERGLADES            75     140/  9/ 11 1017.6
VIRGINIA KEY               74 72  140/  4/  6 1018.1S
LAKE WORTH                 75 76  160/  9/ 10 1017.5F
SETTLEMENT POINT           71     120/  7/  8 1018.5F

$$



USA.gov is the U.S. government's official web portal to all federal, state and local government web resources and services.